Aérodrome :
LOGIN :

S'inscrire | Disclaimer

   EN    FR    IT 

 










Légende :    VFR   VFR Marginal   IFR   IFR Intensif   IFR Très Intensif
Visi : 
Plafond : 
>= 8 km
>= 3000ft
5 à 8 km
1000 à 3000 ft
1500m à 5 km
500 à 1000 ft
800 à 1500m
200 à 500 ft
< 800m
< 200 ft
Symboles :   Orages  Brouillard  Fortes neiges  Fortes précipitations  Vent > 20 kt
SIGMETs :   Divers  Orages  Givrage  Turbulence  Onde Orograph.  Cendres Volcan.







- Altitude de l'aérodrome : 915 ft
- Code IATA : LUG


LSZA - Lugano

DERNIER METAR :
  • 191050Z 19003KT 6000 NSC 17/09 Q1019 NOSIG

METARs EXPIRÉS :
  • 191020Z VRB02KT 6000 NSC 17/10 Q1019 NOSIG
  • 190950Z VRB01KT 7000 NSC 16/09 Q1019 NOSIG
  • 190920Z 20003KT 7000 NSC 14/10 Q1020 NOSIG
  • 190850Z VRB01KT 6000 NSC 14/09 Q1020 NOSIG
  • 190820Z 01003KT 6000 NSC 12/09 Q1020 NOSIG

TAF TAF LSZA
Valide du 19 à 09h jusqu'au 19 à 18h UTC


190825Z 1909/1918 VRB03KT 7000 NSC
ATIS : +41 22 417 40 88
Pas de NOTAMs connus pour ce terrain.



MET'MAP, la Météo Aéronautique d'un coup d'oeil ! - Copyright ORBIFLY Décembre 2007 - Disclaimer

ORBIFLY MET'MAP TEAM :

Programmation & Développement : Alexandra Zaïnal
Conception & Développement : Baudouin d'Aumeries
Co-Programmation & Développement : Marc-Olivier Méhu
Soutien technique & logistique : Manuel Goepfert

Contact : metmap@orbifly.com




SOURCES & CREDITS :

   NOAA